Location: Dayton
(39.7590°N, 84.1920°W)
Time: 02:26:18
(UTC-04:00)

ATLAS CENTAUR R/B - Visible Passes

Search period start: 02 September 2015 00:00
Search period end: 12 September 2015 00:00
Orbit: 238 x 8831 km, 57.3° (Epoch: 20 June)

Date Brightness Start Highest point End Pass type
(mag) Time Alt. Az. Time Alt. Az. Time Alt. Az.
02 Sep 7.5 01:28:28 13° SE 01:47:54 22° ESE 02:06:22 10° ENE visible
02 Sep 5.9 04:35:42 18° SSW 05:11:21 79° SE 05:24:11 10° NE visible
03 Sep 7.0 02:26:03 23° SSE 02:48:26 38° ESE 03:06:18 10° ENE visible
03 Sep 5.6 05:33:13 14° SW 06:09:45 75° NW 06:20:36 10° NE visible
04 Sep 6.4 03:23:02 28° S 03:48:12 57° SE 04:03:45 10° NE visible
04 Sep 5.5 06:35:32 10° WSW 07:07:32 52° NW 07:16:34 10° NE visible
05 Sep 7.4 01:12:27 18° SE 01:23:27 22° ESE 01:42:28 10° ENE visible
05 Sep 5.9 04:19:29 28° SSW 04:46:54 80° SE 05:00:06 10° NE visible
06 Sep 7.0 02:08:28 29° SSE 02:23:11 38° ESE 02:41:31 10° ENE visible
06 Sep 5.6 05:15:27 22° SW 05:44:36 75° NW 05:55:46 10° NE visible
07 Sep 6.4 03:04:02 37° S 03:22:13 57° SE 03:38:13 10° NE visible
07 Sep 5.5 06:10:58 12° WSW 06:41:43 53° NW 06:51:02 10° NE visible
08 Sep 7.4 00:52:18 21° ESE 00:56:41 22° ESE 01:16:13 10° ENE visible
08 Sep 5.9 03:59:09 37° SSW 04:20:13 80° SE 04:33:51 10° NE visible
09 Sep 7.0 01:47:03 34° SE 01:55:39 38° ESE 02:14:32 10° ENE visible
09 Sep 5.7 04:53:53 29° SW 05:17:15 76° NW 05:28:48 10° NE visible
10 Sep 6.4 02:41:25 44° SSE 02:53:57 57° SE 03:10:32 10° NE visible
10 Sep 5.6 05:48:12 18° WSW 06:13:41 54° NW 06:23:21 10° NE visible
11 Sep 7.3 00:28:41 22° ESE 00:28:41 22° ESE 00:47:37 10° ENE visible
11 Sep 6.0 03:35:25 45° SSW 03:51:16 79° SE 04:05:26 10° NE visible
11 Sep 5.5 06:45:43 10° W 07:09:53 38° NNW 07:17:38 10° NE visible
